STARLINK-35778, 66973

Orbit data source: Space-Track

STARLINK-35778, 66973 is a payload satellite owned by SpaceX/Seattle (US) in LEO that was launched on Mon, 08 Dec 2025 UTC via an FALCON 9 launch vehicle from the Air Force Eastern Test Range (AFETR). Payload-class satellites include a variety of spacecraft equipped with specific instruments for various scientific and technological missions. These include communications satellites like Starlink; space stations such as the ISS; scientific satellites like the Hubble; Earth observation satellites from companies like Planet Labs, Umbra, and HawkEye 360; GPS; miniature CubeSats for education and research; and military/defense satellites.

Loading next visibility...
Identifier
66973, 2025-288Q
Orbit
LEO
Country
Flag of USUS
Related business
Manufacturer
SpaceX/Seattle
Mission
Operational Commercial Communications
Bus & Motor
STARLINK V2MO, Unknown motor
Mass
575 kg wet, ~530 kg dry
Launch date (UTC)
2025-12-08 (7 months ago)
Launch vehicle
FALCON 9
Launch site
Air Force Eastern Test Range (AFETR)
Object type
Payload
Rocket body
Debris
Shape & HBR
Box + 2 Pan, 17.7 m
Radar Cross Section
36.964 m², Large (>1 m²)

Expand to show TLE details & history
Last TLE update: 10 hours ago

TLE from 10 hours ago
0 STARLINK-35778
1 66973U 25288Q   26177.57376580  .00024187  00000-0  88549-3 0  9999
2 66973  43.0014 128.2082 0001420 264.9040  95.1650 15.27583818 31941
Epoch: 2026-06-26T13:46Z
TLE epoch observation values (Epoch: 2026-06-26T13:46:13.365Z)
Latitude
0.00002°
Longitude
6.95221°
Altitude
482.901 km
Speed
7.626 km/s
True Right ascension
08h 32m 49s
True Declination
0° 00' 00"
Sunlit
Object was in daylight at epoch
Visualization orbit readout
Latitude
Unknown
Longitude
Unknown
Altitude
Unknown
Speed
Unknown
Apparent Right ascension
Unknown
Apparent Declination
Unknown
Sunlit
N/A
Visualization observer readout
Local Sidereal Time
10:38:49
Azimuth
Unknown
Elevation
Unknown
Doppler factor
Unknown
Orbital elements
Apogee altitude
485.957 km
Perigee altitude
484.008 km
Semi-major axis
6,863.12 km
Eccentricity
0.00014
Inclination
43.0014°
RAAN
128.2082°
Arg. of periapsis
264.904°
True anomaly
95.18121°
Mean anomaly
95.165°
Eccentric anomaly
95.1731°
Mean motion
3.81734 °/min
Orbital period
94.31 mins
BSTAR
0.00088549
Loading maneuver chart data...
Computing Atmospheric mass density...
Loading historical data...
Loading historical data...
Loading historical data...
Loading historical data...
Loading historical data...
Loading historical data...
Loading historical data...

Documentation

Showing up to 5 results
|